Regional Weather Roundup
Issued by NWS Cleveland, OH

Home | Current Version | Previous Version | Graphics & Text | Print | Product List | Glossary On
Versions: 1 2 3 4 5 6 7 8 9 10 11 12 13 14 15 16 17 18 19 20 21 22 23 24 25 26 27 28 29 30 31 32 33 34 35 36 37 38 39 40 41 42 43 44 45 46 47 48 49 50
058
ASUS41 KCLE 221512
RWRCLE
OHIO REGIONAL WEATHER ROUNDUP
NATIONAL WEATHER SERVICE WILMINGTON, OH
1100 AM EDT SUN OCT 22 2017

NOTE: "FAIR" INDICATES FEW OR NO CLOUDS BELOW 12,000 FEET WITH NO
SIGNIFICANT WEATHER AND/OR OBSTRUCTIONS TO VISIBILITY.

OHZ001>008-015>018-024>027-034-035-043-044-221600-
   NORTHWEST OHIO

CITY           SKY/WX    TMP DP  RH WIND       PRES   REMARKS
DEFIANCE       FAIR      67  52  58 S12G18    30.15F
FINDLAY        FAIR      68  52  56 S10       30.18F
TOLEDO EXPRESS FAIR      68  55  63 S9        30.16F
TOLEDO EXEC    FAIR      68  53  58 S15       30.18F
LIMA           FAIR      69  53  56 S13G24    30.17F
$$

OHZ009>014-019>023-028>033-038-089-221600-
   NORTHEAST OHIO

CITY           SKY/WX    TMP DP  RH WIND       PRES   REMARKS
CLE-HOPKINS    FAIR      68  52  56 S9        30.26R
CLE-LAKEFRONT  FAIR      66  51  58 S13       30.23R
CUY CO. ARPT   MOSUNNY   68  54  60 S14       30.24S
LORAIN-ELYRIA  FAIR      65  49  56 S9        30.24S
ASHTABULA      FAIR      64  54  69 S9        30.27S
AKRON-CANTON   PTSUNNY   68  52  56 S10       30.27S
WOOSTER        FAIR      67  52  58 S7        30.27R
MANSFIELD      FAIR      68  50  52 S14       30.25R
YOUNGSTOWN     FAIR      66  53  63 S9        30.27F
$$

OHZ042-051>053-060>062-070>072-077>081-221600-
  SOUTHWEST OHIO

CITY           SKY/WX    TMP DP  RH WIND       PRES   REMARKS
CINC-COVINGTON FAIR      68  53  58 S13       30.20S
CINC-LUNKEN    FAIR      67  55  65 S8        30.22F
HAMILTON       FAIR      68  52  56 VRB7      30.21F
DAYTON         PTSUNNY   68  52  56 S15       30.21F
WRIGHT-PAT AFB FAIR      69  51  53 S15       30.20F
DAYTON GENERAL FAIR      68  50  52 S17       30.20F
WILMINGTON     FAIR      68  53  58 S12       30.22F
$$

OHZ036-037-039>041-045>050-054>059-063>069-073>076-082>088-221600-
  CENTRAL AND SOUTHEAST OHIO

CITY           SKY/WX    TMP DP  RH WIND       PRES   REMARKS
COLUMBUS       PTSUNNY   69  53  56 S10       30.24F
OSU AIRPORT    FAIR      65  54  67 S9        30.24F
BOLTON FIELD   SUNNY     66  54  63 S10       30.24F
RICKENBACK AFB FAIR      67  52  60 S10       30.24F
NEWARK         FAIR      67  52  58 SE6       30.25F
MARION         FAIR      68  49  50 S16G25    30.23F
LANCASTER      FAIR      65  55  70 SE8       30.26F
ZANESVILLE     FAIR      64  53  67 S7        30.29R
NEW PHILLY     FAIR      67  54  63 VRB5      30.28F
$$




USA.gov is the U.S. government's official web portal to all federal, state and local government web resources and services.